This demonstration page uses our WeatherBlox Daily Observations layout. Learn more.

Left ArrowRight Arrow

Hourly Observations for April 11, 2020

Temp ( °F °C ) Dew Point ( °F °C ) Humidity (%) Winds ( mph kmh ) Pressure ( in mb ) Visibility ( mi km ) Precip ( " mm )
12:52 am 00:52 Clear 44 6.7 26 -3.3 49 49 S 8 13 29.81 1010 9 14 0.00 0.00
1:52 am 01:52 Clear 46 7.8 26 -3.3 46 46 SSE 9 15 29.78 1009 10 16 0.00 0.00
2:52 am 02:52 Clear 47 8.3 27 -2.8 46 46 SSE 17 28 29.76 1008 10 16 0.00 0.00
3:52 am 03:52 Clear 46 7.8 28 -2.2 50 50 S 12 19 29.75 1007 10 16 0.00 0.00
4:52 am 04:52 Clear 46 7.8 29 -1.7 51 51 SSE 10 17 29.72 1007 10 16 0.00 0.00
5:52 am 05:52 Cloudy 44 6.7 32 0 63 63 SSE 8 13 29.72 1006 10 16 0.00 0.00
6:52 am 06:52 Cloudy with Light Rain 45 7.2 33 0.6 63 63 S 5 7 29.70 1006 10 16 0.00 0.00
7:52 am 07:52 Cloudy 45 7.2 35 1.7 68 68 SSE 8 13 29.70 1006 10 16 0.00 0.00
8:52 am 08:52 Mostly Cloudy with Light Rain 48 8.9 35 1.7 61 61 SSE 7 11 29.70 1006 10 16 0.00 0.00
9:52 am 09:52 Mostly Cloudy 47 8.3 40 4.4 77 77 E 5 7 29.68 1005 10 16 0.01 0.25
10:52 am 10:52 Mostly Cloudy 50 10 38 3.3 63 63 Calm 29.70 1006 10 16 0.00 0.00
11:52 am 11:52 Mostly Cloudy 54 12.2 40 4.4 59 59 ESE 5 7 29.67 1005 10 16 0.00 0.00
12:52 pm 12:52 Mostly Cloudy 61 16.1 41 5 48 48 VRB 3 6 29.63 1004 10 16 0.00 0.00
1:52 pm 13:52 Partly Cloudy 67 19.4 42 5.6 41 41 VRB 3 6 29.60 1002 10 16 0.00 0.00
2:52 pm 14:52 Partly Cloudy 67 19.4 43 6.1 42 42 SSW 3 6 29.59 1002 10 16 0.00 0.00
3:52 pm 15:52 Partly Cloudy 71 21.7 44 6.7 38 38 Calm 29.56 1001 10 16 0.00 0.00
4:52 pm 16:52 Mostly Cloudy 72 22.2 44 6.7 37 37 Calm 29.54 1000 10 16 0.00 0.00
5:52 pm 17:52 Partly Cloudy 71 21.7 44 6.7 38 38 NW 3 6 29.53 1000 10 16 0.00 0.00
6:52 pm 18:52 Partly Cloudy 70 21.1 43 6.1 38 38 Calm 29.54 1000 10 16 0.00 0.00
7:28 pm 19:28 Hazy 61 16.1 37 2.8 41 41 NNW 20 31 29.54 1000 5 8 0.00 0.00
7:52 pm 19:52 Hazy 58 14.4 36 2.2 44 44 NNW 17 28 29.55 1001 5 8 0.00 0.00
8:52 pm 20:52 Hazy 55 12.8 37 2.8 51 51 N 13 20 29.59 1002 5 8 0.00 0.00
9:52 pm 21:52 Mostly Cloudy with Haze 54 12.2 37 2.8 53 53 N 13 20 29.61 1003 5 8 0.00 0.00
10:52 pm 22:52 Partly Cloudy 53 11.7 39 3.9 59 59 N 13 20 29.60 1003 8 13 0.00 0.00
11:52 pm 23:52 Clear 52 11.1 42 5.6 69 69 NNE 12 19 29.58 1002 10 16 0.00 0.00

Powered by AerisWeather